Погода в Вахрушево

Россия / Ярославская область     57°18′05″N   39°35′14″E
темп.,
°C
ветер,
м/с
пор.,
м/с
влажн.,
%
обл.,
%
осадки,
мм/ч
давл.,
гПа
погр.,
м
11 апреля, вс
вс1100:00+2ю514735 0.0 1024253
03:00+1ююз411815 0.0 1024195
06:00+1юз38845 0.0 1026148
09:00+6зюз34725 0.0 1027309
12:00+10юз356336 0.0 1029985
15:00+11зюз3463100 0.0 10291156
18:00+10всв117061 0.0 103015
21:00+8вюв228077 0.0 103224
12 апреля, пн
пн1200:00+7ююв348073 0.0 103371
03:00+5ююв337949 0.0 103537
06:00+4ююв348421 0.0 103565
09:00+9юв47665 0.0 1035347
12:00+13юв5754100 0.0 1034882
15:00+14вюв6852100 0.0 10321035
18:00+11вюв51064100 0.0 1031700
21:00+8юв51173100 0.0 1030460
13 апреля, вт
вт1300:00+7юв3885100 0.0 1029271
03:00+6юв389699 0.0 1028177
06:00+5юв3797100 0.0 1027156
09:00+11ю597110 0.0 1025365
12:00+16ю61153100 0.0 1024793
15:00+17ююз5952100 0.0 1023801
18:00+15ююз3364100 0.0 102342
21:00+13ю3768100 0.0 1023125
14 апреля, ср
ср1400:00+10ю3872100 0.0 1023124
03:00+8ю367566 0.0 102385
06:00+8ю377983 0.0 1022109
09:00+14ю476053 0.0 1021316
12:00+18ююз5847100 0.0 1021752
15:00+19ююз6745100 0.0 10201152
18:00+17ююз3555100 0.0 102083
21:00+13ю226299 0.0 102012
15 апреля, чт
чт1500:00+10сз2273100 0.0 102017
03:00+8с349475 0.0 102056
06:00+7ссв3596100 0.0 1020240
09:00+8ссв4486100 0.0 1020445
12:00+10с5577100 0.0 1020626
15:00+10с6671100 0.0 1020867
18:00+7ссв7981100 0.0 1021651
21:00+5ссв61282100 0.1 1021791